Location: Campavaglio
(41.1333°N, 9.2333°E)
Time: 21:49:41
(UTC+00:00)

Cosmos 2237 - Visible Passes

Search period start: 29 September 2020 00:00
Search period end: 09 October 2020 00:00
Orbit: 847 x 854 km, 70.8° (Epoch: 29 September)

Date Brightness Start Highest point End Pass type
(mag) Time Alt. Az. Time Alt. Az. Time Alt. Az.
29 Sep 4.6 02:28:18 58° NE 02:28:18 58° NE 02:32:53 10° NNE visible
29 Sep 5.8 04:10:20 15° WNW 04:12:08 17° NW 04:15:49 10° N visible
30 Sep 5.1 02:16:45 44° NNE 02:16:45 44° NNE 02:20:35 10° NNE visible
30 Sep 5.8 03:58:47 16° WNW 03:59:50 17° NW 04:03:31 10° N visible
01 Oct 5.6 02:05:09 34° NNE 02:05:09 34° NNE 02:08:18 10° NNE visible
01 Oct 5.8 03:47:11 17° NW 03:47:32 17° NW 03:51:14 10° N visible
02 Oct 6.0 01:53:30 27° NNE 01:53:30 27° NNE 01:56:00 10° NNE visible
02 Oct 5.9 03:35:31 17° NW 03:35:31 17° NW 03:38:56 10° N visible
03 Oct 6.3 01:41:48 22° NNE 01:41:48 22° NNE 01:43:43 10° NNE visible
03 Oct 6.0 03:23:49 17° NW 03:23:49 17° NW 03:26:39 10° N visible
04 Oct 6.6 01:30:04 18° NNE 01:30:04 18° NNE 01:31:25 10° NNE visible
04 Oct 6.1 03:12:04 16° NNW 03:12:04 16° NNW 03:14:21 10° N visible
05 Oct 6.8 01:18:17 15° NNE 01:18:17 15° NNE 01:19:07 10° NNE visible
05 Oct 6.2 03:00:17 15° NNW 03:00:17 15° NNW 03:02:03 10° N visible
06 Oct 7.0 01:06:28 12° NNE 01:06:28 12° NNE 01:06:49 10° NNE visible
06 Oct 6.4 02:48:29 14° NNW 02:48:29 14° NNW 02:49:46 10° N visible
07 Oct 6.5 02:36:39 12° NNW 02:36:39 12° NNW 02:37:28 10° N visible
08 Oct 6.7 02:24:47 11° N 02:24:47 11° N 02:25:10 10° N visible
